Wind_Speed
45 46 48 49 50 50 51 52 53 54 55 57 58 58 59 59 60 60 60 61 61 61 61 61 61 60 60 60 61 61 61 61 61 60 63 64 66 66 65 63 60 57 54
47 49 51 52 52 54 55 56 58 58 58 58 59 59 59 59 60 60 60 60 60 60 59 59 59 59 59 60 60 60 60 61 61 60 61 62 62 60 57 53 50 46 44
50 52 54 55 56 58 59 59 60 59 59 59 58 58 59 59 59 58 58 58 58 57 57 58 58 58 58 59 59 59 59 60 60 59 57 55 52 49 46 42 39 37 35
55 56 57 58 58 60 60 60 59 59 59 58 57 57 58 57 57 56 55 55 55 55 56 56 57 56 56 57 56 56 56 55 54 52 48 44 40 37 35 32 31 31 31
56 57 58 59 59 59 59 59 58 58 57 56 56 56 56 55 55 54 53 54 54 55 55 55 55 54 54 53 52 52 50 48 46 41 37 33 31 29 28 28 27 28 29
57 57 58 57 57 57 57 57 56 55 54 53 53 53 53 52 53 53 53 52 52 52 52 52 51 50 49 49 48 46 44 40 35 31 28 26 25 25 25 26 26 26 27
55 55 55 55 55 54 54 53 52 51 50 50 50 50 50 50 50 51 51 51 50 49 48 47 47 45 44 43 42 39 36 31 27 24 21 21 21 22 23 24 25 25 25
53 52 52 51 51 51 50 49 48 48 48 49 49 49 50 50 49 48 48 47 46 46 45 43 42 40 38 36 33 30 27 23 20 18 17 18 19 21 23 23 23 23 22
49 49 48 47 47 47 46 46 46 46 47 47 48 48 48 47 46 46 45 45 44 42 40 38 35 33 31 27 25 22 19 16 15 14 15 17 19 20 20 21 20 20 20
45 44 44 44 43 43 44 44 44 45 46 46 46 46 46 45 44 43 41 40 38 36 34 31 28 25 22 20 16 14 12 11 12 13 15 16 18 18 19 19 19 19 19
40 40 40 41 41 41 42 43 44 45 45 45 44 43 42 40 39 37 35 33 31 28 26 23 20 17 15 12 10 8 8 9 11 12 14 15 16 17 18 18 18 19 19
36 37 37 38 39 40 41 42 43 43 42 41 40 38 36 34 32 30 28 25 23 21 19 16 13 11 9 7 6 6 7 9 10 11 13 15 16 16 17 18 18 18 18
34 35 37 38 39 40 40 41 40 39 38 36 34 32 29 26 24 22 20 18 16 14 12 10 8 6 4 3 4 5 7 8 10 11 13 15 16 16 16 17 19 19 19
34 35 37 38 39 39 39 38 36 34 32 29 26 24 21 20 18 16 14 12 10 8 6 4 3 2 2 3 4 5 7 8 10 11 13 15 16 16 17 17 19 20 20
35 36 37 37 37 35 34 32 29 27 24 22 19 17 16 14 13 11 8 6 4 3 1 1 2 3 4 4 5 6 8 9 10 11 13 15 16 17 17 18 19 20 21
35 35 34 33 31 29 27 25 22 20 18 16 14 12 11 9 8 5 3 2 2 3 4 5 5 5 6 6 7 8 9 10 11 12 13 15 16 17 18 19 20 21 22
33 32 30 28 25 22 20 19 16 14 13 11 9 8 7 5 3 3 4 5 6 6 7 7 7 7 8 8 9 9 10 11 12 13 14 15 16 17 18 19 20 21 22
29 26 24 21 19 17 15 13 12 10 9 8 7 6 5 5 6 7 7 8 9 9 9 9 9 9 10 10 10 11 12 13 14 15 16 16 17 17 19 19 20 21 22
24 21 19 16 14 13 11 10 9 9 8 8 7 7 8 9 10 10 10 10 10 10 11 11 11 11 12 12 12 12 13 14 16 17 17 18 18 18 19 20 21 22 23
20 17 15 13 11 10 10 10 10 10 9 9 10 10 11 12 12 12 12 12 12 12 12 12 12 13 13 13 14 14 15 16 17 18 19 19 20 20 20 21 21 22 22
17 15 13 11 10 10 10 10 10 10 11 11 12 13 13 13 13 13 13 13 13 13 13 13 14 14 14 14 15 16 17 18 18 19 20 21 21 22 23 23 23 23 23
16 14 13 11 11 11 11 11 12 12 12 13 14 14 14 14 14 14 14 14 14 14 14 14 15 15 15 15 16 17 17 18 18 19 20 21 21 22 23 23 23 23 23
16 15 14 13 12 12 13 13 13 14 14 15 15 15 15 15 15 15 15 15 15 15 15 15 15 15 15 15 16 16 17 17 18 18 19 19 20 21 21 22 23 23 23
18 17 16 15 15 15 15 16 15 15 15 15 15 15 15 15 15 15 15 15 15 15 15 15 15 15 14 15 15 15 16 16 16 17 17 17 18 18 19 19 20 20 21
20 19 19 18 17 17 18 18 17 17 16 16 15 15 14 14 14 15 15 15 14 14 14 14 14 14 14 13 14 14 14 14 15 15 15 16 16 16 17 17 17 18 18
21 21 20 20 19 19 19 19 19 18 17 16 15 15 14 14 14 14 14 14 14 14 14 14 13 13 13 13 12 13 13 13 13 14 14 14 15 15 16 16 16 16 16
Wind_Direction
294 295 297 299 300 302 302 303 302 301 299 298 297 296 295 294 293 293 293 293 293 293 293 293 294 294 295 294 295 296 296 295 295 294 293 292 292 292 292 293 293 292 291
292 294 296 298 299 300 301 302 302 301 299 298 297 295 294 293 293 292 292 292 293 294 294 294 295 296 296 296 297 297 296 296 296 295 295 295 294 295 295 295 295 294 292
292 294 296 297 298 299 300 300 300 299 298 297 296 295 294 293 292 292 292 293 294 295 295 296 297 297 297 297 297 296 297 297 297 298 297 297 297 297 298 298 297 296 295
293 294 296 297 298 299 299 299 298 297 297 296 295 294 294 293 293 293 293 293 295 296 296 297 297 297 297 297 297 297 298 299 300 301 301 300 300 301 301 301 301 300 299
296 296 297 297 298 297 298 298 297 296 296 295 294 293 293 293 293 294 294 295 296 296 297 297 297 297 297 297 298 299 300 301 302 302 303 303 303 304 305 305 305 304 303
297 297 297 297 297 297 297 297 296 296 295 294 294 294 294 294 294 294 295 296 297 297 297 297 297 298 298 299 299 300 302 303 304 304 304 305 306 307 308 309 308 307 306
296 296 296 296 296 296 296 296 295 295 294 293 293 293 294 295 295 296 296 296 296 297 297 298 299 299 299 300 302 303 305 306 306 307 309 311 312 314 314 314 314 313 311
295 295 296 296 296 296 296 295 295 294 293 293 294 294 295 295 295 295 295 296 296 297 297 297 298 299 300 302 303 305 306 308 310 313 317 319 320 320 320 321 320 320 319
296 296 296 296 296 296 295 295 295 294 295 295 295 295 295 295 295 295 295 295 296 296 297 298 299 300 302 303 304 306 307 311 316 321 324 326 327 328 329 329 330 330 330
296 296 296 296 296 296 296 296 296 296 296 296 295 295 296 295 295 295 295 296 297 298 298 299 300 301 302 304 305 307 312 318 325 330 332 333 334 336 338 339 340 341 341
297 297 297 297 297 297 297 297 297 297 297 297 297 297 296 296 295 295 296 296 297 298 299 300 301 301 302 305 308 314 322 330 334 336 338 340 343 345 346 347 348 350 351
299 299 299 299 299 299 299 299 299 299 299 298 298 297 297 296 297 297 298 299 299 299 300 300 300 302 306 312 321 331 337 340 343 345 348 351 352 352 354 355 356 357 359
301 302 302 302 302 302 302 301 301 301 300 299 299 299 298 298 299 299 300 300 300 300 301 300 303 308 318 333 346 350 351 353 355 357 359 1 2 3 4 5 6 8 9
305 305 305 305 305 304 304 304 304 303 303 302 302 301 301 302 302 302 301 302 302 304 304 307 318 344 20 29 17 12 10 10 9 10 11 10 11 12 13 13 14 17 18
308 308 308 308 307 307 307 307 307 307 307 307 306 305 305 306 307 308 309 312 317 324 350 62 74 73 66 53 40 31 27 25 22 22 20 18 18 19 19 19 22 24 24
312 312 312 311 311 311 312 313 313 314 315 315 314 314 315 317 321 327 343 21 52 83 92 91 89 83 75 65 55 49 44 37 32 28 25 24 24 26 26 25 26 28 29
318 318 318 317 318 319 320 321 323 325 328 329 332 334 337 344 9 47 69 79 87 93 93 92 90 86 80 74 68 61 52 45 39 36 34 33 33 32 32 32 31 32 34
325 325 326 327 328 330 333 336 340 344 348 354 2 11 27 58 75 81 85 88 90 91 93 93 90 89 87 82 75 66 56 50 46 45 43 42 41 39 37 37 37 37 39
334 335 337 339 343 347 353 1 7 11 16 23 35 51 69 79 84 86 86 89 91 92 93 92 92 94 92 85 77 67 61 56 53 52 51 50 47 45 43 43 43 43 45
344 347 350 355 2 11 20 27 28 31 39 48 61 72 81 86 87 85 86 88 90 93 94 93 95 96 91 85 77 71 65 62 59 57 55 54 52 50 49 48 48 48 49
358 3 8 16 26 33 39 41 42 48 58 66 74 80 84 86 86 84 84 86 89 93 95 97 98 96 91 85 79 74 69 66 63 60 58 57 55 55 54 53 52 51 51
17 23 30 37 44 49 52 54 56 64 70 75 80 83 86 86 85 83 83 85 88 92 97 98 97 95 90 85 79 75 71 68 65 62 61 59 57 56 56 55 54 53 53
32 37 44 50 56 59 61 64 68 73 76 80 83 85 86 85 83 81 82 85 88 92 96 97 96 94 89 84 80 75 71 68 66 64 61 59 57 56 55 54 54 53 54
44 50 56 61 65 67 68 70 74 77 79 83 84 85 85 83 82 81 83 85 88 91 94 95 94 92 88 83 79 74 70 66 63 61 59 57 56 55 54 53 52 51 51
53 57 61 66 69 71 72 73 75 77 80 82 83 84 83 82 82 82 84 86 88 90 92 93 91 89 85 81 76 71 66 62 59 57 55 53 51 50 49 48 47 47 47
57 60 63 67 70 72 73 73 74 76 78 80 81 81 82 82 83 84 85 85 87 89 90 89 88 85 82 77 73 67 62 57 53 51 49 46 44 42 41 40 39 40 40
Height
5776 5772 5769 5766 5763 5759 5756 5752 5748 5745 5741 5737 5732 5728 5723 5719 5714 5710 5705 5701 5696 5691 5687 5682 5676 5671 5665 5660 5654 5648 5642 5637 5633 5629 5620 5612 5605 5598 5592 5586 5580 5574 5569
5766 5763 5759 5755 5751 5748 5744 5739 5735 5731 5726 5722 5717 5713 5708 5704 5699 5695 5690 5686 5681 5677 5672 5667 5661 5656 5650 5645 5638 5632 5626 5620 5615 5611 5604 5596 5588 5581 5576 5570 5564 5558 5554
5756 5752 5749 5744 5740 5736 5731 5726 5722 5717 5712 5707 5702 5698 5693 5689 5684 5680 5675 5671 5666 5662 5657 5652 5647 5641 5636 5630 5623 5617 5611 5605 5599 5594 5588 5580 5573 5567 5562 5557 5551 5546 5542
5745 5740 5736 5732 5727 5722 5717 5712 5707 5702 5697 5693 5688 5683 5679 5674 5670 5665 5661 5657 5652 5648 5643 5638 5632 5627 5622 5616 5610 5603 5597 5591 5585 5579 5573 5567 5561 5556 5551 5547 5543 5538 5534
5732 5727 5723 5718 5713 5708 5703 5698 5693 5688 5683 5678 5673 5668 5664 5660 5655 5651 5647 5643 5639 5634 5629 5624 5618 5613 5608 5602 5597 5591 5585 5579 5573 5567 5562 5558 5553 5548 5544 5540 5536 5531 5526
5718 5714 5709 5704 5699 5694 5688 5683 5678 5673 5668 5664 5659 5655 5651 5646 5642 5638 5634 5630 5626 5621 5616 5610 5605 5600 5595 5589 5584 5579 5574 5569 5564 5559 5555 5551 5547 5542 5538 5533 5529 5525 5521
5704 5699 5695 5690 5685 5679 5674 5669 5665 5660 5655 5651 5647 5642 5638 5634 5630 5625 5621 5617 5613 5608 5603 5598 5593 5588 5584 5579 5574 5569 5564 5560 5556 5552 5549 5545 5541 5537 5533 5529 5523 5518 5514
5690 5685 5680 5676 5671 5666 5661 5656 5652 5647 5643 5639 5634 5630 5626 5622 5617 5613 5609 5605 5600 5597 5592 5588 5583 5578 5574 5570 5566 5561 5557 5554 5551 5548 5545 5541 5537 5533 5529 5524 5519 5514 5509
5676 5671 5667 5662 5657 5653 5648 5644 5639 5635 5631 5626 5622 5618 5613 5609 5605 5601 5597 5592 5589 5585 5581 5578 5574 5570 5566 5563 5559 5556 5553 5550 5548 5545 5542 5538 5534 5530 5525 5520 5515 5511 5506
5663 5659 5654 5650 5645 5641 5636 5632 5628 5623 5619 5614 5610 5606 5601 5597 5593 5589 5585 5581 5578 5575 5572 5569 5566 5563 5560 5557 5555 5553 5550 5548 5546 5543 5540 5536 5532 5527 5523 5518 5513 5508 5503
5652 5647 5643 5638 5634 5630 5625 5621 5616 5612 5607 5602 5598 5594 5589 5585 5581 5578 5575 5572 5569 5566 5564 5562 5559 5557 5555 5554 5552 5550 5548 5546 5544 5541 5538 5535 5530 5526 5521 5516 5511 5506 5501
5642 5637 5633 5628 5624 5619 5614 5609 5604 5600 5595 5590 5586 5582 5578 5575 5572 5569 5566 5564 5562 5560 5558 5556 5555 5553 5552 5551 5550 5549 5547 5545 5543 5540 5537 5534 5529 5525 5520 5516 5511 5505 5500
5633 5628 5623 5618 5613 5608 5603 5598 5593 5588 5584 5580 5576 5572 5569 5566 5564 5562 5560 5558 5556 5555 5554 5552 5552 5551 5551 5550 5549 5548 5547 5545 5542 5540 5537 5533 5529 5525 5520 5516 5511 5506 5500
5624 5619 5614 5608 5603 5598 5593 5588 5583 5578 5574 5570 5567 5564 5562 5560 5558 5556 5555 5553 5552 5552 5551 5550 5550 5550 5550 5550 5549 5548 5546 5544 5542 5540 5536 5533 5529 5525 5521 5516 5512 5507 5502
5616 5610 5604 5598 5593 5588 5583 5578 5574 5570 5567 5564 5561 5559 5557 5555 5554 5552 5551 5551 5550 5550 5550 5550 5550 5550 5550 5550 5549 5548 5547 5545 5543 5540 5537 5534 5530 5526 5522 5518 5513 5509 5504
5607 5601 5595 5589 5584 5579 5575 5571 5567 5564 5561 5559 5556 5555 5553 5552 5551 5550 5550 5549 5550 5550 5550 5550 5551 5551 5551 5550 5550 5549 5548 5546 5544 5541 5538 5535 5531 5528 5524 5520 5516 5511 5507
5598 5592 5587 5581 5577 5573 5569 5566 5563 5560 5558 5556 5554 5552 5551 5550 5550 5550 5550 5550 5550 5551 5551 5552 5552 5552 5552 5552 5551 5550 5549 5547 5545 5542 5539 5536 5533 5530 5526 5522 5518 5514 5510
5591 5585 5580 5576 5572 5569 5566 5563 5561 5558 5556 5555 5553 5552 5551 5551 5550 5551 5551 5552 5552 5552 5553 5553 5554 5554 5554 5554 5553 5553 5551 5549 5547 5544 5542 5539 5536 5533 5529 5526 5522 5518 5514
5586 5581 5577 5573 5570 5567 5565 5562 5560 5558 5557 5555 5554 5553 5552 5552 5553 5553 5553 5554 5554 5555 5555 5556 5556 5556 5557 5556 5556 5555 5554 5552 5550 5547 5545 5542 5539 5536 5533 5530 5526 5523 5519
5583 5579 5575 5572 5569 5567 5565 5563 5561 5560 5558 5557 5556 5555 5555 5555 5556 5556 5557 5557 5557 5558 5558 5559 5559 5559 5560 5560 5559 5558 5556 5555 5553 5551 5548 5546 5543 5540 5537 5534 5531 5528 5525
5582 5578 5575 5572 5570 5568 5567 5565 5564 5562 5561 5560 5559 5559 5559 5559 5560 5560 5560 5561 5561 5561 5562 5562 5563 5563 5563 5563 5562 5561 5560 5559 5557 5555 5553 5550 5548 5545 5542 5539 5536 5533 5530
5582 5579 5576 5574 5572 5571 5570 5568 5567 5565 5564 5564 5563 5563 5564 5564 5564 5564 5565 5565 5565 5565 5566 5566 5567 5567 5567 5567 5566 5565 5564 5563 5561 5560 5558 5556 5553 5550 5548 5545 5542 5539 5536
5584 5582 5579 5577 5576 5574 5573 5572 5571 5570 5569 5568 5568 5568 5569 5569 5569 5569 5569 5569 5569 5570 5570 5571 5571 5571 5571 5571 5570 5570 5569 5567 5566 5564 5563 5561 5559 5556 5554 5551 5548 5546 5543
5589 5586 5583 5582 5580 5579 5578 5576 5575 5575 5574 5574 5574 5574 5574 5574 5574 5574 5574 5574 5574 5574 5575 5575 5575 5575 5575 5575 5575 5574 5573 5572 5570 5569 5567 5566 5563 5561 5559 5556 5554 5551 5549
5594 5591 5589 5587 5585 5584 5583 5582 5581 5580 5579 5579 5579 5579 5579 5579 5579 5579 5579 5579 5579 5579 5579 5580 5580 5580 5579 5579 5579 5578 5577 5576 5574 5573 5571 5570 5568 5566 5563 5561 5559 5557 5554
5600 5597 5595 5593 5591 5590 5589 5588 5586 5585 5585 5584 5584 5584 5584 5584 5584 5584 5584 5584 5584 5584 5584 5584 5584 5584 5583 5583 5582 5582 5581 5580 5578 5577 5575 5574 5572 5570 5567 5565 5563 5561 5559